Time,TemperatureF,DewpointF,PressureIn,WindDirection,WindDirectionDegrees,WindSpeedMPH,WindSpeedGustMPH,Humidity,HourlyPrecipIn,Conditions,Clouds,dailyrainin,SoftwareType,DateUTC
2013-01-05 00:05:00,22.8,22.1,30.26,NNW,337,0.0,-999.0,97,-99.99,,,0.00,Acu-Link.com,2013-01-05 05:05:00,
2013-01-05 00:20:00,22.5,22.0,30.26,NNW,337,0.0,-999.0,98,-99.99,,,0.00,Acu-Link.com,2013-01-05 05:20:00,
2013-01-05 00:35:00,23.2,22.7,30.25,North,0,3.2,-999.0,98,-99.99,,,0.00,Acu-Link.com,2013-01-05 05:35:00,
2013-01-05 00:51:00,25.2,23.5,30.26,NW,315,0.0,-999.0,93,-99.99,,,0.00,Acu-Link.com,2013-01-05 05:51:00,
2013-01-05 01:06:00,23.9,22.4,30.27,NW,315,1.1,-999.0,94,-99.99,,,0.00,Acu-Link.com,2013-01-05 06:06:00,
2013-01-05 01:21:00,23.4,22.2,30.27,NW,315,0.0,-999.0,95,-99.99,,,0.00,Acu-Link.com,2013-01-05 06:21:00,
2013-01-05 01:36:00,23.0,22.0,30.27,NW,315,0.0,-999.0,96,-99.99,,,0.00,Acu-Link.com,2013-01-05 06:36:00,
2013-01-05 01:51:00,22.3,21.3,30.26,NW,315,0.0,-999.0,96,-99.99,,,0.00,Acu-Link.com,2013-01-05 06:51:00,
2013-01-05 02:07:00,22.1,21.1,30.25,NW,315,0.0,-999.0,96,-99.99,,,0.00,Acu-Link.com,2013-01-05 07:07:00,
2013-01-05 02:28:00,22.1,21.6,30.27,NNW,337,0.0,-999.0,98,-99.99,,,0.00,Acu-Link.com,2013-01-05 07:28:00,
2013-01-05 02:43:00,21.7,21.5,30.27,NNW,337,0.0,-999.0,99,-99.99,,,0.00,Acu-Link.com,2013-01-05 07:43:00,
2013-01-05 02:58:00,21.6,21.4,30.26,NNW,337,0.0,-999.0,99,-99.99,,,0.00,Acu-Link.com,2013-01-05 07:58:00,
2013-01-05 03:13:00,21.4,21.2,30.27,NNW,337,0.0,-999.0,99,-99.99,,,0.00,Acu-Link.com,2013-01-05 08:13:00,
2013-01-05 03:28:00,21.2,21.0,30.26,NNW,337,0.0,-999.0,99,-99.99,,,0.00,Acu-Link.com,2013-01-05 08:28:00,
2013-01-05 03:43:00,20.8,20.3,30.26,NNW,337,0.0,-999.0,98,-99.99,,,0.00,Acu-Link.com,2013-01-05 08:43:00,
2013-01-05 04:10:00,21.0,20.8,30.27,NNW,337,0.0,-999.0,99,-99.99,,,0.00,Acu-Link.com,2013-01-05 09:10:00,
2013-01-05 04:36:00,20.8,20.6,30.26,NNW,337,0.0,-999.0,99,-99.99,,,0.00,Acu-Link.com,2013-01-05 09:36:00,
2013-01-05 05:01:00,19.8,19.1,30.25,NNW,337,0.0,-999.0,97,-99.99,,,0.00,Acu-Link.com,2013-01-05 10:01:00,
2013-01-05 05:16:00,20.5,20.3,30.25,NW,315,2.7,-999.0,99,-99.99,,,0.00,Acu-Link.com,2013-01-05 10:16:00,
2013-01-05 05:31:00,19.9,19.2,30.24,NW,315,0.0,-999.0,97,-99.99,,,0.00,Acu-Link.com,2013-01-05 10:31:00,
2013-01-05 05:46:00,19.8,18.8,30.25,NW,315,0.0,-999.0,96,-99.99,,,0.00,Acu-Link.com,2013-01-05 10:46:00,
2013-01-05 06:01:00,20.3,20.1,30.25,NW,315,0.0,-999.0,99,-99.99,,,0.00,Acu-Link.com,2013-01-05 11:01:00,
2013-01-05 06:16:00,19.9,19.4,30.27,NW,315,0.0,-999.0,98,-99.99,,,0.00,Acu-Link.com,2013-01-05 11:16:00,
2013-01-05 06:33:00,20.1,19.6,30.29,NW,315,0.0,-999.0,98,-99.99,,,0.00,Acu-Link.com,2013-01-05 11:33:00,
2013-01-05 06:50:00,19.4,18.4,30.28,NW,315,0.0,-999.0,96,-99.99,,,0.00,Acu-Link.com,2013-01-05 11:50:00,
2013-01-05 07:06:00,19.6,19.1,30.28,NW,315,0.0,-999.0,98,-99.99,,,0.00,Acu-Link.com,2013-01-05 12:06:00,
2013-01-05 07:21:00,19.4,18.7,30.27,NW,315,0.0,-999.0,97,-99.99,,,0.00,Acu-Link.com,2013-01-05 12:21:00,
2013-01-05 07:36:00,19.6,19.1,30.29,NW,315,0.0,-999.0,98,-99.99,,,0.00,Acu-Link.com,2013-01-05 12:36:00,
2013-01-05 07:51:00,19.2,18.5,30.27,NW,315,0.0,-999.0,97,-99.99,,,0.00,Acu-Link.com,2013-01-05 12:51:00,
2013-01-05 08:06:00,19.8,19.3,30.28,NNW,337,0.0,-999.0,98,-99.99,,,0.00,Acu-Link.com,2013-01-05 13:06:00,
2013-01-05 08:23:00,20.3,19.8,30.28,NNW,337,0.0,-999.0,98,-99.99,,,0.00,Acu-Link.com,2013-01-05 13:23:00,
2013-01-05 08:39:00,21.7,21.2,30.27,North,0,1.7,-999.0,98,-99.99,,,0.00,Acu-Link.com,2013-01-05 13:39:00,
2013-01-05 08:54:00,25.0,24.3,30.27,NW,315,0.0,-999.0,97,-99.99,,,0.00,Acu-Link.com,2013-01-05 13:54:00,
2013-01-05 09:09:00,28.0,26.5,30.25,ESE,112,0.0,-999.0,94,-99.99,,,0.00,Acu-Link.com,2013-01-05 14:09:00,
2013-01-05 09:26:00,33.1,29.1,30.25,ESE,112,2.2,-999.0,85,-99.99,,,0.01,Acu-Link.com,2013-01-05 14:26:00,
2013-01-05 09:41:00,34.2,29.9,30.25,ESE,112,2.7,-999.0,84,-99.99,,,0.01,Acu-Link.com,2013-01-05 14:41:00,
2013-01-05 09:56:00,37.4,29.2,30.24,ENE,67,1.1,-999.0,72,-99.99,,,0.01,Acu-Link.com,2013-01-05 14:56:00,
2013-01-05 10:11:00,37.2,31.0,30.24,SE,135,1.7,-999.0,78,-99.99,,,0.01,Acu-Link.com,2013-01-05 15:11:00,
2013-01-05 10:27:00,40.3,31.7,30.24,ESE,112,2.2,-999.0,71,-99.99,,,0.01,Acu-Link.com,2013-01-05 15:27:00,
2013-01-05 10:42:00,41.0,29.8,30.25,ESE,112,3.2,-999.0,64,-99.99,,,0.01,Acu-Link.com,2013-01-05 15:42:00,
2013-01-05 10:57:00,42.8,29.1,30.24,ESE,112,2.2,-999.0,58,-99.99,,,0.01,Acu-Link.com,2013-01-05 15:57:00,
2013-01-05 11:12:00,44.1,29.0,30.23,ESE,112,3.2,-999.0,55,-99.99,,,0.01,Acu-Link.com,2013-01-05 16:12:00,
2013-01-05 11:27:00,44.6,28.1,30.22,ENE,67,4.7,-999.0,52,-99.99,,,0.01,Acu-Link.com,2013-01-05 16:27:00,
2013-01-05 11:42:00,45.5,28.0,30.21,ESE,112,2.2,-999.0,50,-99.99,,,0.01,Acu-Link.com,2013-01-05 16:42:00,
2013-01-05 11:57:00,45.3,27.8,30.21,NNW,337,2.2,-999.0,50,-99.99,,,0.01,Acu-Link.com,2013-01-05 16:57:00,
2013-01-05 12:12:00,45.3,28.3,30.20,North,0,1.7,-999.0,51,-99.99,,,0.01,Acu-Link.com,2013-01-05 17:12:00,
2013-01-05 12:27:00,48.0,27.7,30.16,NE,45,4.2,-999.0,45,-99.99,,,0.01,Acu-Link.com,2013-01-05 17:27:00,
2013-01-05 12:43:00,48.0,27.1,30.16,ENE,67,2.7,-999.0,44,-99.99,,,0.02,Acu-Link.com,2013-01-05 17:43:00,
2013-01-05 12:58:00,50.0,28.4,30.15,ESE,112,2.7,-999.0,43,-99.99,,,0.02,Acu-Link.com,2013-01-05 17:58:00,
2013-01-05 13:13:00,50.7,28.5,30.12,East,90,3.2,-999.0,42,-99.99,,,0.02,Acu-Link.com,2013-01-05 18:13:00,
2013-01-05 13:28:00,50.9,29.2,30.11,ESE,112,4.7,-999.0,43,-99.99,,,0.02,Acu-Link.com,2013-01-05 18:28:00,
2013-01-05 13:43:00,51.8,27.6,30.10,SW,225,2.2,-999.0,39,-99.99,,,0.02,Acu-Link.com,2013-01-05 18:43:00,
2013-01-05 13:58:00,51.6,27.5,30.09,SSE,157,2.7,-999.0,39,-99.99,,,0.02,Acu-Link.com,2013-01-05 18:58:00,
2013-01-05 14:14:00,52.0,27.8,30.09,SSW,202,2.2,-999.0,39,-99.99,,,0.02,Acu-Link.com,2013-01-05 19:14:00,
2013-01-05 14:29:00,51.4,27.9,30.09,West,270,0.0,-999.0,40,-99.99,,,0.03,Acu-Link.com,2013-01-05 19:29:00,
2013-01-05 14:44:00,48.6,26.6,30.10,SSE,157,1.7,-999.0,42,-99.99,,,0.03,Acu-Link.com,2013-01-05 19:44:00,
2013-01-05 15:17:00,48.6,26.6,30.09,SE,135,1.7,-999.0,42,-99.99,,,0.04,Acu-Link.com,2013-01-05 20:17:00,
2013-01-05 15:32:00,49.1,26.4,30.09,SSE,157,0.0,-999.0,41,-99.99,,,0.04,Acu-Link.com,2013-01-05 20:32:00,
2013-01-05 15:47:00,48.7,27.2,30.09,SW,225,0.0,-999.0,43,-99.99,,,0.04,Acu-Link.com,2013-01-05 20:47:00,
2013-01-05 16:02:00,44.1,8.7,30.10,WNW,292,2.2,-999.0,23,-99.99,,,0.04,Acu-Link.com,2013-01-05 21:02:00,
2013-01-05 16:17:00,46.4,28.3,30.09,SW,225,1.1,-999.0,49,-99.99,,,0.04,Acu-Link.com,2013-01-05 21:17:00,
2013-01-05 16:33:00,46.0,28.4,30.09,NNW,337,0.0,-999.0,50,-99.99,,,0.04,Acu-Link.com,2013-01-05 21:33:00,
2013-01-05 16:48:00,45.9,27.8,30.09,ESE,112,0.0,-999.0,49,-99.99,,,0.04,Acu-Link.com,2013-01-05 21:48:00,
2013-01-05 17:03:00,45.5,28.4,30.10,NW,315,1.7,-999.0,51,-99.99,,,0.04,Acu-Link.com,2013-01-05 22:03:00,
2013-01-05 17:18:00,44.8,28.7,30.11,NW,315,0.0,-999.0,53,-99.99,,,0.04,Acu-Link.com,2013-01-05 22:18:00,
2013-01-05 17:33:00,44.4,29.7,30.10,NW,315,0.0,-999.0,56,-99.99,,,0.04,Acu-Link.com,2013-01-05 22:33:00,
2013-01-05 17:48:00,43.9,31.7,30.11,NW,315,0.0,-999.0,62,-99.99,,,0.04,Acu-Link.com,2013-01-05 22:48:00,
2013-01-05 18:04:00,43.0,32.8,30.11,West,270,0.0,-999.0,67,-99.99,,,0.04,Acu-Link.com,2013-01-05 23:04:00,
2013-01-05 18:19:00,42.6,32.1,30.11,West,270,0.0,-999.0,66,-99.99,,,0.04,Acu-Link.com,2013-01-05 23:19:00,
2013-01-05 18:34:00,42.3,31.0,30.11,NNE,22,0.0,-999.0,64,-99.99,,,0.04,Acu-Link.com,2013-01-05 23:34:00,
2013-01-05 18:49:00,41.9,32.5,30.11,NW,315,0.0,-999.0,69,-99.99,,,0.04,Acu-Link.com,2013-01-05 23:49:00,
2013-01-05 19:05:00,41.5,33.5,30.12,WNW,292,0.0,-999.0,73,-99.99,,,0.04,Acu-Link.com,2013-01-06 00:05:00,
2013-01-05 19:20:00,41.4,33.7,30.12,West,270,0.0,-999.0,74,-99.99,,,0.04,Acu-Link.com,2013-01-06 00:20:00,
2013-01-05 19:35:00,41.2,32.9,30.14,WNW,292,0.0,-999.0,72,-99.99,,,0.04,Acu-Link.com,2013-01-06 00:35:00,
2013-01-05 19:50:00,41.0,32.3,30.13,West,270,2.2,-999.0,71,-99.99,,,0.04,Acu-Link.com,2013-01-06 00:50:00,
2013-01-05 20:05:00,41.2,32.2,30.12,West,270,0.0,-999.0,70,-99.99,,,0.04,Acu-Link.com,2013-01-06 01:05:00,
2013-01-05 20:20:00,41.0,35.3,30.14,West,270,0.0,-999.0,80,-99.99,,,0.05,Acu-Link.com,2013-01-06 01:20:00,
2013-01-05 20:35:00,40.3,35.9,30.12,ESE,112,2.7,-999.0,84,-99.99,,,0.05,Acu-Link.com,2013-01-06 01:35:00,
2013-01-05 20:50:00,39.6,36.9,30.13,North,0,0.0,-999.0,90,-99.99,,,0.05,Acu-Link.com,2013-01-06 01:50:00,
2013-01-05 21:05:00,39.2,36.8,30.13,NNW,337,0.0,-999.0,91,-99.99,,,0.05,Acu-Link.com,2013-01-06 02:05:00,
2013-01-05 21:21:00,39.0,37.2,30.12,NNE,22,0.0,-999.0,93,-99.99,,,0.06,Acu-Link.com,2013-01-06 02:21:00,
2013-01-05 21:36:00,38.8,37.2,30.13,NW,315,0.0,-999.0,94,-99.99,,,0.06,Acu-Link.com,2013-01-06 02:36:00,
2013-01-05 21:51:00,38.7,37.4,30.12,East,90,0.0,-999.0,95,-99.99,,,0.07,Acu-Link.com,2013-01-06 02:51:00,
2013-01-05 22:06:00,38.5,37.7,30.13,NNW,337,0.0,-999.0,97,-99.99,,,0.07,Acu-Link.com,2013-01-06 03:06:00,
2013-01-05 22:21:00,38.5,37.7,30.14,NNW,337,0.0,-999.0,97,-99.99,,,0.07,Acu-Link.com,2013-01-06 03:21:00,
2013-01-05 22:36:00,38.3,37.5,30.14,WNW,292,0.0,-999.0,97,-99.99,,,0.07,Acu-Link.com,2013-01-06 03:36:00,
2013-01-05 22:52:00,38.1,37.3,30.13,NW,315,0.0,-999.0,97,-99.99,,,0.08,Acu-Link.com,2013-01-06 03:52:00,
2013-01-05 23:07:00,38.1,37.3,30.12,WNW,292,1.7,-999.0,97,-99.99,,,0.08,Acu-Link.com,2013-01-06 04:07:00,
2013-01-05 23:22:00,38.1,37.6,30.12,NW,315,0.0,-999.0,98,-99.99,,,0.08,Acu-Link.com,2013-01-06 04:22:00,
2013-01-05 23:37:00,38.1,37.6,30.12,WNW,292,0.0,-999.0,98,-99.99,,,0.08,Acu-Link.com,2013-01-06 04:37:00,
2013-01-05 23:52:00,38.1,37.6,30.12,SW,225,0.0,-999.0,98,-99.99,,,0.09,Acu-Link.com,2013-01-06 04:52:00,